Wind_Speed
12 12 12 12 12 12 10 8 7 7 7 7 6 6 6 6 7 7 7 7 7 7 6 6 6 5 5 4 4 4 3 3 3 2 1 1 1 0 1 2 2 3 4 5 4 3 3 3 3
12 11 11 12 12 11 10 9 8 7 8 7 7 6 7 7 7 7 7 7 7 7 6 6 6 6 5 4 4 3 3 3 3 3 2 2 1 2 1 2 2 2 3 4 3 2 2 2 3
12 12 12 12 10 10 10 9 8 8 8 8 8 8 7 7 7 7 7 7 7 7 7 6 6 6 5 5 4 4 4 4 4 3 2 3 2 2 2 2 2 2 2 2 1 1 1 2 2
11 12 13 12 10 11 9 9 9 9 9 8 9 8 8 8 8 8 7 7 7 7 7 7 6 6 5 5 4 4 3 3 3 4 3 3 2 2 2 2 1 1 1 1 0 1 1 2 3
12 13 14 9 10 10 9 9 9 8 9 9 9 9 10 9 9 8 8 8 8 7 7 7 7 6 5 5 4 3 3 3 3 3 3 2 2 2 2 2 1 1 1 1 1 1 2 2 3
14 14 12 9 10 10 9 8 9 10 10 9 9 10 10 10 10 9 9 9 8 8 8 8 7 6 6 5 4 4 3 2 2 2 3 2 2 3 2 2 1 1 1 1 1 2 3 3 3
12 13 11 8 8 9 9 9 10 10 10 10 10 11 11 11 10 10 10 9 9 9 9 9 8 7 7 6 6 5 4 4 3 2 3 2 2 2 3 3 2 2 2 2 2 3 3 3 3
12 12 10 6 7 8 8 9 10 10 9 10 10 10 10 10 10 10 10 10 10 10 9 9 9 8 7 6 6 5 5 4 4 3 3 3 3 3 2 3 3 3 3 2 2 2 2 3 3
11 10 8 7 6 7 7 8 9 10 10 10 10 11 11 10 10 10 10 10 11 10 10 9 8 8 7 6 6 5 5 4 4 4 4 4 3 4 3 3 3 3 3 3 2 3 3 3 3
8 8 7 6 6 6 7 7 8 9 10 11 10 10 10 10 10 11 11 11 11 10 10 9 8 8 7 6 6 6 5 4 4 4 4 3 4 4 5 3 3 3 3 4 3 3 3 4 4
7 7 7 6 5 5 7 7 7 8 9 11 11 11 11 11 11 11 11 11 11 11 10 10 9 8 8 7 6 5 5 5 4 4 4 4 4 5 5 4 3 3 3 3 3 4 4 4 4
5 6 6 6 6 6 7 8 7 7 9 10 10 10 11 11 11 11 11 11 11 11 11 11 10 9 8 7 7 6 6 5 5 5 5 5 5 5 5 4 4 4 4 4 4 4 5 5 5
5 6 6 7 7 6 7 8 8 8 8 9 9 10 11 12 12 11 11 11 11 12 11 11 10 9 8 8 7 6 6 6 5 6 6 6 6 6 6 5 4 5 5 5 5 4 4 5 5
3 5 6 6 6 6 7 7 8 9 8 9 9 10 10 11 11 11 11 10 11 11 11 11 11 10 9 9 8 7 6 6 6 6 6 6 7 6 7 6 5 6 5 6 6 5 5 5 5
5 6 6 6 7 7 6 6 7 9 9 9 9 9 10 11 11 11 11 11 11 11 11 11 11 11 10 10 9 8 8 7 7 7 7 7 7 7 7 6 6 6 6 7 6 6 6 6 5
4 6 6 6 6 7 7 8 8 9 10 10 10 10 11 11 11 11 11 11 11 11 11 11 11 10 10 10 10 9 8 8 8 7 8 8 8 8 8 8 7 7 7 7 7 7 6 7 6
5 5 4 4 5 6 8 8 9 9 10 10 11 11 12 12 12 12 11 11 11 11 11 11 11 11 11 11 10 9 8 8 8 8 8 8 8 9 9 8 8 8 7 7 7 8 7 7 7
2 3 3 3 4 5 6 7 9 10 10 10 11 12 13 13 13 12 13 12 11 11 12 11 11 11 12 11 11 10 9 9 9 8 8 9 9 9 9 9 9 8 8 8 9 8 8 8 8
2 2 2 3 4 4 6 7 9 9 10 11 11 12 12 12 12 13 13 13 11 11 12 12 12 12 12 12 12 11 11 10 9 9 8 9 9 9 10 10 9 9 8 9 10 10 9 8 8
3 3 4 4 4 5 7 7 8 9 10 10 11 12 12 12 12 13 13 12 12 12 12 12 13 13 13 13 13 12 11 11 9 9 9 9 9 9 10 10 9 9 9 9 10 10 9 9 9
4 5 4 4 4 6 8 8 8 9 11 12 12 13 13 12 12 13 13 13 13 13 12 12 13 13 14 13 13 12 12 11 10 10 10 11 10 10 9 10 10 10 10 10 11 11 11 10 10
6 7 5 4 5 7 8 9 10 10 12 13 13 14 14 13 13 13 13 13 14 13 13 13 13 14 13 13 13 13 12 12 11 11 11 11 12 12 10 11 11 10 11 11 12 12 12 11 11
6 5 3 4 6 7 8 9 10 10 13 14 14 14 14 14 13 13 13 14 14 14 14 13 13 13 13 13 13 13 13 12 12 11 11 11 12 12 12 12 12 12 12 13 13 13 13 13 13
5 4 5 5 7 8 8 10 11 11 13 14 14 14 15 15 14 14 14 14 14 14 14 14 13 13 13 13 13 13 13 13 12 12 13 13 13 13 13 12 13 13 14 14 14 14 14 14 15
6 5 6 7 9 9 8 11 12 14 14 15 14 16 16 16 15 14 14 14 14 14 14 13 13 13 13 13 13 14 14 14 13 14 14 14 14 14 14 14 14 15 15 15 15 16 16 16 17
8 7 7 9 10 9 9 12 12 13 16 15 14 16 16 16 16 16 15 15 14 14 14 13 13 13 13 14 14 14 15 15 15 15 14 14 14 14 15 15 16 17 17 17 17 17 17 18 18
8 8 7 9 10 10 11 11 13 13 15 15 16 17 17 17 17 17 16 16 16 15 15 15 13 13 14 14 15 15 16 16 16 16 15 15 15 15 15 16 17 18 18 18 18 19 19 19 19
10 8 8 8 10 12 12 11 14 13 14 16 17 17 17 16 17 17 18 18 17 17 17 15 15 15 15 15 15 17 17 16 16 16 16 17 17 17 17 17 18 18 19 19 20 20 21 21 21
10 9 10 10 10 12 12 14 14 13 15 16 18 18 18 18 18 18 19 18 18 18 17 15 15 15 16 16 16 17 18 18 18 18 18 18 19 19 19 19 19 20 21 21 22 23 23 23 23
12 11 11 12 14 12 13 16 17 16 16 18 18 18 19 19 19 20 20 19 18 18 18 18 17 18 18 17 17 17 17 18 18 19 19 20 20 21 21 21 21 22 22 23 24 24 25 25 25
Wind_Direction
77 76 78 74 65 64 63 56 44 41 44 42 37 30 29 29 24 22 18 15 18 24 29 30 29 30 34 52 48 41 46 43 31 21 43 354 334 113 142 186 173 183 185 180 192 201 222 234 237
81 81 78 66 59 57 52 44 35 36 40 38 35 29 31 26 23 26 24 21 21 25 23 25 27 27 32 44 47 47 54 39 29 17 58 53 55 75 77 100 113 132 164 183 192 195 220 238 239
87 83 75 61 56 59 49 39 30 30 39 32 33 28 26 24 22 22 25 25 27 28 23 21 23 29 32 32 42 54 49 34 32 41 79 74 63 67 64 76 101 115 138 153 174 203 217 249 245
86 80 71 56 50 55 45 33 35 34 37 34 30 28 28 26 23 20 23 25 25 27 27 26 31 34 32 30 39 48 45 37 45 54 70 70 60 61 51 54 90 104 167 182 214 269 249 259 259
79 68 64 44 36 46 41 28 25 28 35 34 29 28 32 31 28 27 28 29 29 28 30 30 35 30 28 35 40 41 41 42 42 51 59 55 42 38 36 49 56 162 207 230 261 274 289 273 274
75 71 64 42 29 32 37 30 17 22 28 31 29 31 31 33 33 32 33 31 29 32 34 35 33 30 35 42 39 42 45 45 44 46 45 41 29 24 23 15 5 271 254 269 267 279 293 305 309
77 72 67 44 22 25 24 24 22 25 28 28 27 27 30 32 31 31 32 30 31 32 33 39 41 44 45 48 47 48 54 58 53 42 36 27 24 20 30 18 1 322 282 284 278 297 300 302 300
70 69 67 56 30 25 24 17 18 26 26 28 26 23 27 30 28 28 30 30 30 32 32 36 39 43 46 46 44 44 46 51 48 34 27 22 16 6 5 359 352 340 312 311 314 315 314 305 293
69 65 67 47 31 23 18 17 16 21 25 28 25 22 25 26 25 26 28 27 27 29 32 33 34 39 43 38 35 35 38 36 37 31 26 23 15 359 351 343 352 358 356 339 321 306 306 303 295
66 68 59 43 32 25 21 22 20 18 21 25 27 25 26 26 25 27 28 28 28 27 29 29 30 33 38 36 33 34 37 33 29 25 25 21 11 3 357 356 349 352 352 347 337 318 312 306 300
55 60 48 39 41 24 21 24 25 19 21 25 27 25 24 25 25 27 30 31 27 25 26 27 27 26 27 27 28 31 32 29 26 19 15 11 5 2 352 359 356 348 342 341 337 330 323 311 298
57 58 51 42 43 34 31 25 24 27 22 22 26 24 21 20 24 28 31 28 25 24 23 22 19 18 18 18 20 24 24 24 22 14 12 11 7 358 356 360 354 352 347 345 341 337 333 319 309
71 53 49 47 45 37 30 28 22 21 22 22 22 21 21 20 21 23 27 25 20 19 19 18 15 15 15 13 12 11 15 15 6 4 11 9 4 0 356 351 346 343 338 334 334 332 329 332 327
56 57 45 39 32 30 23 19 20 17 19 19 16 17 18 18 16 17 22 23 18 15 14 13 12 13 13 9 4 4 4 6 5 7 6 2 357 354 356 357 354 354 351 346 342 339 334 334 330
33 44 31 24 10 19 23 18 16 8 10 10 10 11 12 13 11 10 11 12 12 12 13 12 11 10 9 6 3 1 1 1 4 3 1 358 359 357 354 351 349 348 350 350 349 349 351 340 335
31 26 30 24 359 2 8 10 6 4 6 5 6 7 4 5 6 6 4 3 3 7 9 8 5 5 4 4 3 2 0 358 359 357 356 353 352 351 353 350 346 346 345 345 345 344 343 344 341
19 12 22 9 351 346 357 355 356 357 358 2 1 1 1 0 0 360 358 357 357 0 2 1 359 357 357 354 353 354 355 353 352 351 349 349 349 348 350 349 345 344 343 341 342 339 336 337 340
345 354 2 337 324 330 344 337 338 344 348 354 357 358 357 356 357 358 356 352 355 357 355 355 355 354 351 350 346 343 344 341 343 342 343 345 346 347 347 345 341 339 336 335 336 336 332 330 328
253 281 302 310 313 321 332 337 332 329 343 348 353 354 353 354 353 355 355 354 355 355 353 351 351 349 346 346 343 340 337 334 332 335 336 336 342 344 343 342 339 335 333 333 333 331 329 324 323
265 292 289 303 326 327 325 332 333 329 338 341 344 347 349 351 350 350 352 352 350 349 348 345 345 344 340 338 337 336 332 332 328 331 335 334 333 337 338 338 338 336 333 333 333 328 326 324 322
269 278 281 290 317 325 317 318 329 335 334 333 334 339 344 346 345 343 344 345 345 344 341 340 340 340 338 335 335 335 334 331 327 324 328 332 331 329 332 335 335 334 333 332 331 330 327 324 322
276 271 285 309 326 315 308 302 313 314 319 323 329 333 338 340 338 336 338 337 337 337 336 337 337 340 339 337 334 334 336 334 330 325 326 328 327 328 323 323 324 325 328 327 325 326 324 321 320
260 274 295 305 309 305 312 304 302 302 307 317 325 330 334 334 333 335 337 335 333 334 333 334 336 335 334 334 332 331 331 330 326 325 324 325 321 318 316 315 316 316 319 321 320 319 318 316 314
273 288 312 319 308 300 304 299 294 295 300 309 319 326 328 330 330 331 331 332 331 332 334 334 335 331 327 328 330 330 328 327 325 323 321 320 317 314 311 310 312 312 313 314 315 313 311 310 310
265 279 302 308 304 301 299 296 297 299 300 305 313 319 323 324 325 325 325 327 328 327 328 330 329 327 326 325 325 326 325 324 321 318 315 315 314 313 312 311 310 310 310 310 310 310 309 306 305
267 262 274 282 287 287 293 288 293 295 298 302 307 312 317 320 320 323 324 323 322 322 323 326 326 324 324 323 323 322 322 321 319 316 313 312 311 311 311 311 311 310 309 308 307 307 307 305 304
262 261 271 278 287 281 276 280 284 286 295 302 307 310 313 318 319 321 320 319 318 319 318 319 321 320 320 320 319 320 319 318 316 314 313 311 310 310 310 309 309 311 311 309 307 306 304 303 302
268 270 274 269 277 283 293 281 279 287 294 301 305 309 311 314 315 317 317 316 315 315 314 316 317 316 315 315 315 318 319 316 314 313 312 311 310 307 307 308 308 307 307 307 306 305 303 301 300
267 276 280 278 273 279 288 286 285 288 293 295 297 303 305 307 309 312 312 314 314 313 312 309 312 313 313 311 313 315 315 314 314 314 313 312 311 308 306 305 306 307 306 304 304 304 302 300 299
253 257 266 275 281 284 287 284 288 289 288 290 293 296 301 304 306 308 309 311 310 310 311 311 310 311 312 309 310 311 312 312 313 313 313 312 312 310 307 306 305 305 305 305 305 305 303 301 299
Height
5893 5892 5892 5892 5891 5890 5890 5891 5889 5888 5888 5887 5886 5885 5884 5884 5884 5884 5881 5879 5878 5877 5876 5875 5874 5874 5873 5872 5872 5871 5871 5871 5870 5869 5869 5869 5868 5866 5865 5864 5864 5865 5867 5869 5871 5873 5874 5874 5875
5895 5895 5894 5893 5892 5893 5893 5892 5891 5890 5890 5888 5887 5886 5886 5884 5884 5883 5881 5880 5879 5878 5877 5876 5875 5875 5874 5873 5873 5872 5872 5871 5870 5869 5868 5869 5869 5867 5866 5866 5866 5867 5868 5869 5872 5873 5874 5875 5875
5896 5896 5896 5895 5895 5895 5895 5894 5893 5892 5891 5890 5889 5888 5887 5886 5885 5883 5882 5881 5880 5879 5878 5877 5876 5875 5875 5874 5873 5873 5872 5872 5870 5868 5868 5869 5870 5869 5868 5868 5868 5869 5870 5871 5873 5874 5874 5874 5875
5898 5897 5897 5899 5898 5897 5897 5896 5895 5893 5892 5891 5891 5890 5888 5887 5885 5884 5883 5882 5881 5880 5879 5878 5877 5876 5875 5874 5874 5873 5873 5872 5872 5870 5871 5871 5871 5871 5871 5870 5870 5871 5872 5873 5874 5874 5874 5874 5875
5900 5898 5899 5901 5900 5899 5899 5898 5896 5895 5894 5893 5892 5891 5889 5888 5887 5885 5884 5883 5882 5881 5880 5878 5878 5877 5876 5875 5875 5874 5873 5873 5873 5873 5873 5873 5873 5872 5872 5872 5872 5872 5873 5873 5874 5874 5874 5874 5875
5902 5900 5903 5904 5903 5901 5900 5899 5898 5896 5895 5894 5894 5893 5891 5890 5888 5887 5885 5884 5883 5882 5881 5879 5878 5877 5876 5876 5876 5875 5874 5874 5874 5874 5874 5874 5873 5873 5873 5873 5873 5873 5873 5873 5874 5874 5874 5874 5874
5903 5902 5904 5906 5905 5904 5903 5901 5900 5899 5898 5896 5895 5894 5893 5891 5890 5888 5887 5886 5884 5883 5882 5881 5879 5878 5878 5877 5877 5876 5876 5875 5875 5875 5875 5874 5874 5874 5874 5874 5874 5873 5873 5873 5874 5874 5874 5874 5874
5905 5906 5907 5908 5907 5907 5905 5904 5902 5901 5900 5899 5897 5896 5894 5893 5891 5890 5888 5887 5886 5884 5883 5882 5881 5880 5879 5879 5878 5877 5877 5877 5876 5876 5875 5875 5875 5874 5874 5874 5874 5873 5873 5873 5873 5873 5873 5873 5873
5908 5910 5910 5910 5910 5909 5907 5906 5904 5902 5901 5900 5899 5898 5896 5895 5893 5892 5890 5889 5887 5886 5884 5883 5882 5881 5880 5880 5879 5878 5878 5877 5877 5876 5876 5876 5875 5875 5875 5875 5874 5874 5873 5873 5873 5873 5873 5873 5872
5912 5912 5912 5912 5911 5910 5909 5908 5906 5904 5903 5902 5901 5899 5898 5896 5895 5893 5892 5890 5889 5887 5886 5885 5884 5883 5882 5881 5880 5879 5879 5878 5878 5877 5877 5876 5876 5876 5875 5874 5874 5874 5874 5873 5873 5872 5872 5872 5872
5914 5914 5914 5913 5913 5912 5910 5909 5908 5906 5905 5904 5902 5901 5899 5898 5897 5895 5893 5891 5890 5889 5887 5886 5885 5884 5883 5882 5881 5880 5880 5879 5878 5878 5877 5877 5876 5876 5875 5874 5874 5874 5874 5873 5873 5872 5872 5872 5871
5916 5916 5915 5914 5914 5913 5912 5911 5909 5908 5907 5905 5904 5902 5901 5899 5898 5896 5895 5893 5892 5890 5889 5887 5886 5885 5884 5883 5882 5881 5881 5880 5879 5878 5878 5877 5877 5876 5875 5875 5874 5874 5874 5873 5873 5872 5871 5871 5870
5918 5917 5916 5915 5915 5914 5913 5912 5911 5910 5908 5907 5905 5904 5903 5901 5899 5898 5896 5895 5893 5892 5891 5889 5888 5886 5885 5884 5883 5882 5881 5880 5879 5878 5878 5878 5877 5876 5875 5875 5874 5874 5873 5873 5872 5872 5871 5870 5870
5918 5918 5918 5917 5916 5916 5915 5914 5912 5911 5910 5908 5907 5906 5904 5902 5901 5899 5898 5896 5894 5893 5892 5890 5889 5887 5886 5885 5883 5882 5881 5881 5880 5879 5879 5878 5877 5877 5876 5875 5875 5874 5873 5873 5872 5871 5870 5870 5869
5919 5919 5919 5919 5918 5917 5916 5915 5914 5912 5911 5910 5908 5907 5905 5904 5902 5900 5899 5897 5895 5894 5893 5891 5890 5888 5887 5885 5884 5883 5882 5881 5881 5880 5879 5878 5878 5877 5876 5875 5874 5873 5873 5872 5871 5870 5870 5869 5868
5920 5921 5920 5920 5919 5918 5918 5916 5914 5913 5912 5910 5909 5908 5906 5904 5903 5901 5900 5898 5896 5895 5893 5892 5891 5889 5888 5886 5885 5884 5883 5882 5881 5881 5880 5879 5878 5877 5876 5875 5874 5873 5872 5872 5871 5870 5869 5869 5868
5921 5922 5921 5922 5921 5920 5919 5917 5915 5914 5912 5911 5910 5908 5907 5905 5903 5902 5900 5898 5897 5895 5894 5893 5891 5890 5888 5887 5886 5884 5883 5883 5882 5881 5880 5879 5878 5877 5876 5875 5874 5873 5872 5871 5870 5869 5868 5868 5867
5923 5923 5923 5923 5922 5921 5919 5918 5916 5914 5913 5912 5910 5909 5907 5905 5904 5902 5900 5898 5896 5895 5895 5893 5892 5890 5889 5887 5886 5884 5883 5883 5882 5881 5880 5879 5878 5877 5876 5875 5874 5873 5872 5871 5870 5869 5867 5866 5866
5923 5923 5923 5923 5922 5921 5920 5918 5916 5914 5913 5912 5911 5909 5908 5906 5904 5903 5901 5898 5896 5896 5895 5893 5892 5891 5889 5888 5886 5885 5884 5883 5882 5880 5879 5878 5877 5876 5875 5874 5873 5872 5871 5870 5869 5868 5867 5865 5865
5922 5922 5923 5923 5922 5921 5919 5919 5917 5915 5913 5913 5912 5910 5908 5906 5905 5903 5901 5899 5898 5896 5895 5894 5892 5890 5889 5887 5886 5884 5883 5882 5881 5879 5878 5877 5876 5875 5874 5873 5872 5871 5870 5869 5868 5867 5866 5864 5863
5921 5922 5922 5922 5921 5920 5919 5918 5917 5914 5913 5913 5911 5910 5908 5906 5905 5903 5901 5899 5898 5896 5894 5893 5892 5890 5888 5886 5885 5883 5882 5881 5880 5878 5877 5876 5875 5874 5873 5872 5871 5870 5869 5867 5866 5865 5864 5863 5861
5921 5921 5920 5920 5920 5920 5920 5918 5917 5914 5913 5912 5911 5909 5907 5906 5904 5902 5900 5899 5897 5895 5894 5892 5890 5889 5887 5886 5884 5883 5881 5880 5878 5877 5876 5875 5874 5873 5872 5871 5870 5869 5867 5866 5865 5863 5862 5861 5860
5919 5919 5920 5920 5919 5919 5919 5919 5917 5914 5913 5912 5910 5909 5907 5905 5904 5902 5900 5898 5896 5894 5893 5891 5889 5888 5886 5885 5883 5881 5880 5878 5877 5876 5874 5873 5872 5871 5870 5869 5868 5867 5866 5864 5863 5862 5860 5859 5858
5918 5918 5918 5919 5918 5918 5919 5919 5916 5914 5913 5911 5909 5908 5906 5904 5903 5901 5899 5897 5895 5893 5892 5890 5888 5887 5885 5884 5882 5880 5878 5877 5875 5874 5873 5871 5870 5869 5868 5867 5866 5865 5863 5862 5861 5859 5858 5857 5855
5917 5918 5919 5918 5918 5919 5917 5917 5916 5913 5912 5910 5908 5907 5905 5903 5901 5900 5898 5896 5894 5892 5890 5889 5887 5885 5883 5882 5880 5879 5877 5875 5874 5872 5871 5869 5868 5867 5866 5864 5863 5862 5861 5859 5858 5856 5855 5854 5852
5916 5917 5918 5918 5917 5917 5916 5915 5914 5911 5910 5908 5907 5905 5903 5902 5900 5898 5896 5894 5892 5890 5888 5886 5885 5883 5882 5880 5878 5876 5875 5873 5872 5870 5868 5867 5866 5864 5863 5862 5860 5859 5857 5856 5854 5853 5852 5850 5849
5913 5914 5915 5915 5915 5915 5914 5913 5912 5909 5908 5907 5905 5904 5902 5900 5898 5895 5893 5892 5890 5888 5886 5883 5882 5881 5879 5878 5876 5874 5872 5871 5869 5867 5866 5864 5863 5861 5860 5858 5857 5855 5854 5852 5851 5849 5847 5846 5844
5912 5912 5913 5913 5912 5911 5911 5909 5907 5906 5905 5904 5903 5901 5900 5897 5895 5893 5891 5889 5888 5886 5883 5881 5879 5878 5876 5874 5873 5871 5869 5868 5866 5865 5863 5861 5860 5858 5856 5854 5853 5851 5849 5848 5846 5844 5842 5841 5839
5911 5911 5910 5910 5910 5909 5908 5908 5904 5903 5902 5901 5900 5899 5897 5895 5892 5890 5888 5886 5885 5883 5881 5878 5877 5875 5873 5871 5870 5868 5866 5865 5863 5861 5860 5858 5856 5854 5852 5850 5849 5847 5845 5843 5841 5839 5837 5835 5833
5907 5908 5909 5909 5907 5906 5906 5906 5901 5900 5899 5898 5896 5895 5893 5891 5889 5887 5885 5883 5881 5879 5877 5874 5873 5872 5870 5868 5867 5865 5863 5861 5859 5858 5856 5854 5852 5850 5848 5846 5844 5842 5840 5837 5835 5833 5831 5829 5827